^^
Datos históricos de la estación: Murcia-Puente Tocinos
Diario Informe para Mayo 17, 2018 Unidades:  Inglés    Métrico   Ambas
Diario Semanal Mensual Anual Configurable
  Máximo: Mínimo: Media:
Temperatura: 72.3 °F 57.6 °F 65.8 °F
Punto de rocio: 53.4 °F 44.6 °F 49.8 °F
Humedad: 72% 44% 57%
Velocidad viento: 14mph 0mph 6mph
Racha viento: 28.8mph - -
Viento- - ESE
Presión: 30 in 29.9 in -
Precipitación: 0 in    
Historical Graphs
 
 
Tabla de datos para Mayo 17, 2018
Hora Temperatura Punto de rocio Presión Viento Velocidad viento Racha viento Humedad Intensidad lluvia(por hora) Nubes
00:02 63 °F 52.5 °F 30 in ENE 3.6 mph 5.8 mph 69% 0 in CLR
00:07 63 °F 52.5 °F 30 in NE 3.1 mph 3.5 mph 69% 0 in CLR
00:12 63 °F 52.5 °F 30 in ENE 3.1 mph 4.6 mph 69% 0 in CLR
00:17 63 °F 52.5 °F 30 in ENE 2.9 mph 3.5 mph 69% 0 in CLR
00:22 63 °F 52.5 °F 30 in ENE 2.9 mph 4.6 mph 69% 0 in CLR
00:27 63 °F 52.5 °F 30 in NE 2.9 mph 3.5 mph 69% 0 in CLR
00:32 62.8 °F 52.5 °F 30 in NE 2.9 mph 3.1 mph 69% 0 in CLR
00:37 62.4 °F 52.5 °F 30 in NE 2 mph 2.3 mph 70% 0 in CLR
00:42 62.4 °F 52.5 °F 30 in NE 2 mph 2 mph 70% 0 in CLR
00:47 62.2 °F 52.3 °F 30 in NE 1.4 mph 2.3 mph 70% 0 in CLR
00:52 62.2 °F 52.3 °F 30 in NE 1.4 mph 2.3 mph 70% 0 in CLR
00:57 62.2 °F 52.7 °F 30 in NE 1.4 mph 2.3 mph 71% 0 in CLR
01:02 62.1 °F 52.5 °F 30 in NE 1.4 mph 2.3 mph 71% 0 in CLR
01:07 62.1 °F 52.5 °F 30 in NE 1.4 mph 2.4 mph 71% 0 in CLR
01:12 62.1 °F 52.5 °F 30 in NE 1.4 mph 2.3 mph 71% 0 in CLR
01:17 61.9 °F 52.3 °F 30 in NE 1.4 mph 2.3 mph 71% 0 in CLR
01:22 61.7 °F 52.2 °F 30 in NE 1.4 mph 2.4 mph 71% 0 in CLR
01:27 61.5 °F 52 °F 30 in West 1.8 mph 2.4 mph 71% 0 in CLR
01:32 61.5 °F 52 °F 30 in West 1.8 mph 3.5 mph 71% 0 in CLR
01:37 61.5 °F 52 °F 30 in West 2 mph 2.9 mph 71% 0 in CLR
01:42 61.5 °F 52 °F 30 in West 2 mph 2.3 mph 71% 0 in CLR
01:47 61.5 °F 52 °F 30 in West 1.4 mph 1.4 mph 71% 0 in CLR
01:52 61.5 °F 52 °F 30 in West 1.4 mph 2 mph 71% 0 in CLR
01:57 61.7 °F 52.2 °F 30 in Calm   2.3 mph 71% 0 in CLR
02:02 61.9 °F 52.3 °F 30 in Calm   2.4 mph 71% 0 in CLR
02:07 61.9 °F 52.3 °F 30 in West 1.4 mph 2.3 mph 71% 0 in CLR
02:12 61.9 °F 52.3 °F 30 in West 1.4 mph 2.3 mph 71% 0 in CLR
02:17 62.1 °F 52.9 °F 30 in West 1.8 mph 3.5 mph 72% 0 in CLR
02:22 62.1 °F 52.5 °F 30 in West 1.8 mph 2.3 mph 71% 0 in CLR
02:27 62.1 °F 52.5 °F 30 in West 1.8 mph 1.8 mph 71% 0 in CLR
02:32 62.1 °F 52.9 °F 30 in SSW 1.8 mph 4.6 mph 72% 0 in CLR
02:37 62.1 °F 52.9 °F 30 in SSW 2.4 mph 3.5 mph 72% 0 in CLR
02:42 62.1 °F 52.2 °F 30 in SSW 2.4 mph   70% 0 in CLR
02:47 61.9 °F 52 °F 30 in SSW 1.4 mph 2.9 mph 70% 0 in CLR
02:52 61.5 °F 51.6 °F 30 in SSW 1.4 mph 2.3 mph 70% 0 in CLR
02:57 61.3 °F 52.2 °F 30 in SSW 1.4 mph 2.3 mph 72% 0 in CLR
03:02 61.2 °F 51.6 °F 29.9 in SSW 1.4 mph 3.5 mph 71% 0 in CLR
03:07 61 °F 51.1 °F 29.9 in SSW 1.8 mph 3.5 mph 70% 0 in CLR
03:12 60.6 °F 50.4 °F 29.9 in SSW 1.8 mph 2.9 mph 69% 0 in CLR
03:17 60.4 °F 50.2 °F 29.9 in SSW 1.8 mph 3.5 mph 69% 0 in CLR
03:22 60.4 °F 49.8 °F 29.9 in SSW 1.8 mph 4.6 mph 68% 0 in CLR
03:27 60.4 °F 50.2 °F 29.9 in SSW 2 mph 2.3 mph 69% 0 in CLR
03:32 60.6 °F 49.6 °F 29.9 in SSW 2 mph 3.5 mph 67% 0 in CLR
03:37 60.6 °F 50.4 °F 29.9 in SSE 1.8 mph 5.8 mph 69% 0 in CLR
03:42 60.3 °F 49.3 °F 29.9 in South 1.8 mph 5.8 mph 67% 0 in CLR
03:47 59.7 °F 48.7 °F 29.9 in South 4 mph 4.6 mph 67% 0 in CLR
03:52 59.5 °F 48.6 °F 29.9 in SSE 4 mph 5.8 mph 67% 0 in CLR
03:57 59.4 °F 48.4 °F 29.9 in SSW 4 mph 8.1 mph 67% 0 in CLR
04:02 59.4 °F 48 °F 29.9 in South 4 mph 8.1 mph 66% 0 in CLR
04:07 59.4 °F 47.7 °F 29.9 in SSW 5.2 mph 6.9 mph 65% 0 in CLR
04:12 59.5 °F 47.3 °F 29.9 in SSW 5.2 mph 6.9 mph 64% 0 in CLR
04:17 59.5 °F 46.6 °F 29.9 in SSW 4.7 mph 9.2 mph 62% 0 in CLR
04:19 59.5 °F 46.6 °F 29.9 in SSW 4.7 mph 9.2 mph 62% 0 in CLR
04:24 59.5 °F 46.6 °F 29.9 in SSW 4.7 mph 5.8 mph 62% 0 in CLR
04:29 59.5 °F 46.9 °F 29.9 in South 5.4 mph 5.8 mph 63% 0 in CLR
04:34 59.5 °F 46.9 °F 29.9 in SW 5.4 mph 5.8 mph 63% 0 in CLR
04:39 59.7 °F 47.1 °F 29.9 in SSW 3.6 mph 6.9 mph 63% 0 in CLR
04:44 59.5 °F 47.3 °F 29.9 in SSW 3.6 mph 8.1 mph 64% 0 in CLR
04:49 59.5 °F 47.3 °F 29.9 in South 5.2 mph 6.9 mph 64% 0 in CLR
04:54 59.5 °F 47.3 °F 29.9 in South 5.2 mph 5.2 mph 64% 0 in CLR
04:59 59.4 °F 47.1 °F 29.9 in SSW 4.3 mph 8.1 mph 64% 0 in CLR
05:04 59.4 °F 46.8 °F 29.9 in SW 4.3 mph 8.1 mph 63% 0 in CLR
05:09 59.4 °F 46.8 °F 29.9 in SW 4.3 mph 8.1 mph 63% 0 in CLR
05:14 59.5 °F 46.9 °F 29.9 in SW 4.3 mph 5.8 mph 63% 0 in CLR
05:19 59.5 °F 46.6 °F 29.9 in SW 3.6 mph 6.9 mph 62% 0 in CLR
05:24 59.5 °F 46.6 °F 29.9 in SW 3.6 mph 5.8 mph 62% 0 in CLR
05:29 59.4 °F 46.2 °F 29.9 in SW 4 mph 4.6 mph 62% 0 in CLR
05:34 59.4 °F 46.2 °F 29.9 in SSW 4 mph 5.8 mph 62% 0 in CLR
05:39 59.4 °F 45.9 °F 29.9 in SW 3.1 mph 6.9 mph 61% 0 in CLR
05:44 59.4 °F 45.9 °F 29.9 in SW 3.1 mph 5.8 mph 61% 0 in CLR
05:49 59.4 °F 45.9 °F 29.9 in West 4.3 mph 4.6 mph 61% 0 in CLR
05:54 59.4 °F 45.9 °F 29.9 in NW 4.3 mph 4.6 mph 61% 0 in CLR
05:59 59 °F 46 °F 29.9 in West 3.1 mph 6.9 mph 62% 0 in CLR
06:04 58.8 °F 45.9 °F 29.9 in WSW 3.1 mph 4.6 mph 62% 0 in CLR
06:09 58.6 °F 46 °F 29.9 in SSW 3.1 mph 4.6 mph 63% 0 in CLR
06:14 58.8 °F 46.2 °F 29.9 in SSE 3.1 mph 4.6 mph 63% 0 in CLR
06:19 58.8 °F 46.2 °F 29.9 in SSW 2.9 mph 5.9 mph 63% 0 in CLR
06:24 58.8 °F 46.2 °F 29.9 in South 2.9 mph 5.8 mph 63% 0 in CLR
06:29 58.6 °F 46 °F 29.9 in SSW 4 mph 4.6 mph 63% 0 in CLR
06:34 58.6 °F 46 °F 29.9 in SSW 4 mph 4.6 mph 63% 0 in CLR
06:39 58.6 °F 46 °F 29.9 in SSW 4 mph 5.8 mph 63% 0 in CLR
06:44 58.5 °F 45.9 °F 29.9 in South 4 mph 5.8 mph 63% 0 in CLR
06:49 58.5 °F 46.2 °F 29.9 in South 4.3 mph 4.6 mph 64% 0 in CLR
06:54 58.3 °F 46.2 °F 29.9 in South 4.3 mph 5.8 mph 64% 0 in CLR
06:59 58.3 °F 46.2 °F 29.9 in South 3.1 mph 3.5 mph 64% 0 in CLR
07:04 58.3 °F 45.7 °F 29.9 in South 3.1 mph 3.1 mph 63% 0 in CLR
07:09 58.3 °F 46.2 °F 29.9 in SE 1.8 mph 4.6 mph 64% 0 in CLR
07:14 58.3 °F 45.7 °F 29.9 in South 1.8 mph 5.8 mph 63% 0 in CLR
07:19 58.1 °F 45.7 °F 29.9 in South 3.1 mph 5.2 mph 63% 0 in CLR
07:24 57.9 °F 45.3 °F 29.9 in SSE 3.1 mph 8.1 mph 63% 0 in CLR
07:29 57.7 °F 44.8 °F 29.9 in SSW 4.7 mph 10.4 mph 62% 0 in CLR
07:34 57.6 °F 44.6 °F 29.9 in South 4.7 mph 9.2 mph 62% 0 in CLR
07:39 57.7 °F 45.1 °F 29.9 in SSW 6.4 mph 8.1 mph 63% 0 in CLR
07:44 57.7 °F 45.1 °F 29.9 in SW 6.4 mph 11.5 mph 63% 0 in CLR
07:49 57.9 °F 45 °F 29.9 in SSW 5.9 mph 9.2 mph 62% 0 in CLR
07:54 58.1 °F 45.1 °F 29.9 in South 5.9 mph 8.1 mph 62% 0 in CLR
07:59 58.3 °F 45.3 °F 29.9 in SW 6.2 mph 9.2 mph 62% 0 in CLR
08:04 58.5 °F 45.1 °F 29.9 in SSW 6.2 mph 9.2 mph 61% 0 in CLR
08:09 58.6 °F 45.1 °F 29.9 in SSW 6.4 mph 6.4 mph 61% 0 in CLR
08:14 58.8 °F 45 °F 29.9 in WSW 6.4 mph 6.4 mph 60% 0 in CLR
08:19 59.2 °F 45 °F 29.9 in WSW 4.3 mph 5.8 mph 59% 0 in CLR
08:24 59.4 °F 45 °F 29.9 in South 4.3 mph 5.8 mph 59% 0 in CLR
08:26 59.5 °F 45.1 °F 29.9 in SSW 4 mph 6.9 mph 59% 0 in CLR
08:31 59.7 °F 45 °F 29.9 in SW 4 mph 7.4 mph 58% 0 in CLR
08:36 59.7 °F 45.3 °F 29.9 in SSW 5.4 mph 8.1 mph 59% 0 in CLR
08:41 59.5 °F 44.8 °F 29.9 in South 5.4 mph 9.2 mph 58% 0 in CLR
08:46 59.7 °F 45 °F 29.9 in SSW 5.4 mph 6.9 mph 58% 0 in CLR
08:51 59.7 °F 45 °F 29.9 in SSW 5.4 mph 8.1 mph 58% 0 in CLR
08:56 60.1 °F 45.1 °F 29.9 in SW 5.9 mph 6.9 mph 58% 0 in CLR
09:01 60.4 °F 45.7 °F 29.9 in SSW 5.9 mph 5.9 mph 58% 0 in CLR
09:06 60.6 °F 45.3 °F 29.9 in SSW 4.7 mph 9.2 mph 57% 0 in CLR
09:11 61 °F 45.7 °F 29.9 in South 4.7 mph 6.9 mph 57% 0 in CLR
09:16 61.3 °F 45.5 °F 29.9 in South 4.7 mph 4.7 mph 56% 0 in CLR
09:21 61.7 °F 45.9 °F 29.9 in SSE 4.7 mph 6.9 mph 56% 0 in CLR
09:26 62.1 °F 45.7 °F 29.9 in SE 4.3 mph 5.8 mph 55% 0 in CLR
09:31 62.4 °F 45.5 °F 29.9 in SE 4.3 mph 6.9 mph 54% 0 in CLR
09:36 62.8 °F 45.9 °F 29.9 in SSW 4.3 mph 4.6 mph 54% 0 in CLR
09:41 63.3 °F 45.9 °F 29.9 in SW 4.3 mph 5.8 mph 53% 0 in CLR
09:46 63.5 °F 46 °F 29.9 in SSW 4 mph 5.8 mph 53% 0 in CLR
09:51 63.7 °F 45.7 °F 29.9 in South 4 mph 6.9 mph 52% 0 in CLR
09:56 64.2 °F 46.2 °F 29.9 in SSE 3.1 mph 3.6 mph 52% 0 in CLR
10:01 64.9 °F 46.4 °F 29.9 in SW 3.1 mph 5.8 mph 51% 0 in CLR
10:06 65.5 °F 46.2 °F 29.9 in SSE 2.4 mph 6.9 mph 50% 0 in CLR
10:11 65.7 °F 46.9 °F 29.9 in NE 2.4 mph 4.6 mph 51% 0 in CLR
10:16 66 °F 46.8 °F 29.9 in SSE 3.1 mph 5.4 mph 50% 0 in CLR
10:21 66.4 °F 47.1 °F 29.9 in ESE 3.1 mph 4.6 mph 50% 0 in CLR
10:26 66.6 °F 47.3 °F 29.9 in SW 2.9 mph 2.9 mph 50% 0 in CLR
10:31 67.1 °F 47.8 °F 29.9 in NNW 2.9 mph 3.6 mph 50% 0 in CLR
10:36 67.6 °F 47.8 °F 29.9 in ESE 2 mph 4.6 mph 49% 0 in CLR
10:41 68.5 °F 49.3 °F 29.9 in ENE 2 mph 8.1 mph 50% 0 in CLR
10:46 69.3 °F 49.8 °F 29.9 in NE 4 mph 11.5 mph 50% 0 in CLR
10:52 69.6 °F 49.6 °F 29.9 in NE 4 mph 9.2 mph 49% 0 in CLR
10:57 70.2 °F 49.5 °F 29.9 in NE 7.6 mph 18.4 mph 48% 0 in CLR
11:02 70 °F 49.5 °F 29.9 in NE 7.6 mph 17.3 mph 48% 0 in CLR
11:07 70.2 °F 50.2 °F 29.9 in ENE 11.2 mph 16.1 mph 49% 0 in CLR
11:12 70.9 °F 49.6 °F 29.9 in East 11.2 mph 16.1 mph 47% 0 in CLR
11:17 71.1 °F 49.8 °F 29.9 in NE 8.7 mph 11.5 mph 47% 0 in CLR
11:22 70.9 °F 49.6 °F 29.9 in East 8.7 mph 9.2 mph 47% 0 in CLR
11:27 70.5 °F 49.3 °F 29.9 in NNE 8.5 mph 21.9 mph 47% 0 in CLR
11:32 70.7 °F 49.5 °F 29.9 in ENE 8.5 mph 17.3 mph 47% 0 in CLR
11:37 70.9 °F 50.2 °F 29.9 in NE 11.2 mph 11.2 mph 48% 0 in CLR
11:42 70.7 °F 50 °F 29.9 in ENE 11.2 mph 20.7 mph 48% 0 in CLR
11:47 70.9 °F 50.2 °F 29.9 in NE 8.7 mph 21.3 mph 48% 0 in CLR
11:52 70.5 °F 49.8 °F 29.9 in NNE 8.7 mph 28.8 mph 48% 0 in CLR
11:57 70.5 °F 50.4 °F 29.9 in East 14 mph 18.1 mph 49% 0 in CLR
12:02 70.9 °F 50.7 °F 29.9 in NE 14 mph 15.6 mph 49% 0 in CLR
12:07 71.4 °F 50.7 °F 29.9 in NE 10.2 mph 17.3 mph 48% 0 in CLR
12:12 71.2 °F 50.5 °F 29.9 in NE 10.2 mph 14 mph 48% 0 in CLR
12:17 71.2 °F 51.1 °F 29.9 in ENE 10.7 mph 14.5 mph 49% 0 in FEW
12:22 70.9 °F 50.7 °F 29.9 in East 10.7 mph 16.1 mph 49% 0 in FEW
12:27 70.9 °F 51.3 °F 29.9 in NNW 9.2 mph 15 mph 50% 0 in FEW
12:32 71.1 °F 51.4 °F 29.9 in East 9.2 mph 16.1 mph 50% 0 in FEW
12:37 71.1 °F 52 °F 29.9 in East 10.2 mph 11.5 mph 51% 0 in FEW
12:42 70.9 °F 51.8 °F 29.9 in ENE 10.2 mph 11.5 mph 51% 0 in FEW
12:47 71.2 °F 51.6 °F 29.9 in NE 8.7 mph 17.3 mph 50% 0 in FEW
12:52 71.2 °F 51.6 °F 29.9 in SSE 8.7 mph 20.7 mph 50% 0 in FEW
12:57 71.2 °F 51.6 °F 29.9 in NE 10 mph 13.8 mph 50% 0 in FEW
13:02 71.2 °F 51.6 °F 29.9 in NE 10 mph 18.4 mph 50% 0 in FEW
13:07 70.9 °F 51.8 °F 29.9 in East 11.4 mph 23 mph 51% 0 in FEW
13:12 71.1 °F 52 °F 29.9 in North 11.4 mph 17.3 mph 51% 0 in FEW
13:17 71.4 °F 51.3 °F 29.9 in East 10 mph 24.2 mph 49% 0 in CLR
13:22 71.4 °F 51.8 °F 29.9 in ENE 10 mph 14.5 mph 50% 0 in CLR
13:27 71.1 °F 51.4 °F 29.9 in ENE 10.2 mph 17.3 mph 50% 0 in CLR
13:32 70.5 °F 51.4 °F 29.9 in North 10.2 mph 16.1 mph 51% 0 in CLR
13:37 71.1 °F 52 °F 29.9 in East 12.3 mph 17.3 mph 51% 0 in CLR
13:42 70.9 °F 51.8 °F 29.9 in NE 12.3 mph 21.9 mph 51% 0 in CLR
13:47 71.1 °F 52 °F 29.9 in North 13 mph 17 mph 51% 0 in CLR
13:52 71.2 °F 51.6 °F 29.9 in NE 13 mph 18.4 mph 50% 0 in CLR
13:57 70.9 °F 51.8 °F 29.9 in ENE 10.2 mph 18.4 mph 51% 0 in CLR
14:02 71.1 °F 52 °F 29.9 in ENE 10.2 mph 11.5 mph 51% 0 in
14:07 71.2 °F 52.2 °F 29.9 in ENE 10.2 mph 16.3 mph 51% 0 in
14:12 71.2 °F 52.7 °F 29.9 in ENE 10.2 mph 15 mph 52% 0 in
14:17 71.1 °F 52 °F 29.9 in ENE 10.2 mph 19.6 mph 51% 0 in
14:22 70.5 °F 52 °F 29.9 in ESE 10.2 mph 23 mph 52% 0 in
14:27 71.1 °F 52 °F 29.9 in NE 12.3 mph 21.9 mph 51% 0 in
14:32 70.7 °F 52.2 °F 29.9 in ENE 12.3 mph 19.6 mph 52% 0 in
14:37 70.7 °F 52.7 °F 29.9 in NE 11.4 mph 20.7 mph 53% 0 in
14:42 71.1 °F 52.5 °F 29.9 in ENE 11.4 mph 16.3 mph 52% 0 in
14:47 71.2 °F 52.7 °F 29.9 in ESE 11.2 mph 18.4 mph 52% 0 in
14:52 71.4 °F 52.3 °F 29.9 in ENE 11.2 mph 23 mph 51% 0 in
14:57 71.1 °F 52.5 °F 29.9 in NE 10.7 mph 12.7 mph 52% 0 in
15:02 71.4 °F 52.3 °F 29.9 in East 10.7 mph 19.6 mph 51% 0 in
15:07 71.4 °F 52.3 °F 29.9 in ENE 10.7 mph 18.4 mph 51% 0 in
15:12 71.4 °F 52.9 °F 29.9 in ENE 10.7 mph 13.8 mph 52% 0 in
15:17 71.6 °F 52.5 °F 29.9 in ENE 10.7 mph 18.4 mph 51% 0 in
15:22 71.4 °F 52.3 °F 29.9 in NE 10.7 mph 26.8 mph 51% 0 in
15:27 70.9 °F 52.9 °F 29.9 in ENE 12.5 mph 20.1 mph 53% 0 in
15:32 71.1 °F 52.5 °F 29.9 in ESE 12.5 mph 16.1 mph 52% 0 in
15:37 71.2 °F 53.2 °F 29.9 in ENE 10.7 mph 19.6 mph 53% 0 in
15:42 71.4 °F 53.4 °F 29.9 in NNE 10.7 mph 13.8 mph 53% 0 in
15:47 71.8 °F 52.7 °F 29.9 in NNE 10.7 mph 13.8 mph 51% 0 in
15:52 72 °F 52.9 °F 29.9 in NE 10.7 mph 11.5 mph 51% 0 in
15:57 72.3 °F 52.5 °F 29.9 in ENE 8.7 mph 15 mph 50% 0 in
16:02 71.8 °F 52.7 °F 29.9 in NNE 8.7 mph 19.6 mph 51% 0 in
16:07 71.8 °F 53.2 °F 29.9 in ENE 11.2 mph 18.4 mph 52% 0 in
16:12 72.1 °F 53.1 °F 29.9 in ENE 11.2 mph 17.3 mph 51% 0 in
16:17 72.1 °F 52.5 °F 29.9 in East 9.7 mph 19.6 mph 50% 0 in
16:22 72 °F 51.8 °F 29.9 in ENE 9.7 mph 20.7 mph 49% 0 in
16:27 72.1 °F 52.5 °F 29.9 in NNE 10.2 mph 17.3 mph 50% 0 in
16:32 72.1 °F 51.4 °F 29.9 in East 10.2 mph 20.7 mph 48% 0 in
16:37 72 °F 52.3 °F 29.9 in ENE 10.2 mph 15 mph 50% 0 in
16:42 72.3 °F 52.2 °F 29.9 in NNE 10.2 mph 11.5 mph 49% 0 in
16:47 72.1 °F 52 °F 29.9 in ESE 9.2 mph 9.2 mph 49% 0 in FEW
16:52 72.1 °F 52 °F 29.9 in ENE 9.2 mph 16.1 mph 49% 0 in
16:57 72 °F 51.3 °F 29.9 in ESE 10.7 mph 17.3 mph 48% 0 in
17:02 72.1 °F 52 °F 29.9 in ESE 10.7 mph 16.1 mph 49% 0 in
17:07 72.3 °F 51.1 °F 29.9 in NNE 10.7 mph 19.6 mph 47% 0 in
17:12 72.1 °F 50.7 °F 29.9 in ESE 10.7 mph 17.3 mph 47% 0 in
17:18 72.3 °F 51.4 °F 29.9 in ENE 10 mph 17.3 mph 48% 0 in
17:21 72.1 °F 50.7 °F 29.9 in NE 10 mph 10 mph 47% 0 in
17:26 72.3 °F 51.1 °F 29.9 in ENE 9.7 mph 15 mph 47% 0 in
17:31 72 °F 50.5 °F 29.9 in ENE 9.7 mph 16.1 mph 47% 0 in
17:36 72 °F 50.5 °F 29.9 in North 8.7 mph 20.7 mph 47% 0 in
17:41 72.1 °F 50.7 °F 29.9 in East 8.7 mph 11.5 mph 47% 0 in
17:46 72 °F 51.3 °F 29.9 in East 9.7 mph 16.1 mph 48% 0 in
17:51 72.1 °F 50.2 °F 29.9 in ESE 9.7 mph 12.7 mph 46% 0 in
17:56 72.3 °F 50.4 °F 29.9 in ENE 8.7 mph 17.3 mph 46% 0 in
18:01 72.3 °F 49.8 °F 29.9 in SSE 8.7 mph 13.8 mph 45% 0 in
18:06 72.1 °F 49.6 °F 29.9 in NE 9.7 mph 18.4 mph 45% 0 in
18:11 72 °F 49.5 °F 29.9 in WNW 9.7 mph 10.4 mph 45% 0 in FEW
18:16 71.8 °F 49.3 °F 29.9 in East 8.7 mph 17.3 mph 45% 0 in FEW
18:21 72 °F 49.5 °F 29.9 in NNE 8.7 mph 12.7 mph 45% 0 in FEW
18:26 71.8 °F 49.3 °F 29.9 in NNW 8.7 mph 12.7 mph 45% 0 in FEW
18:31 71.8 °F 48.7 °F 29.9 in East 8.7 mph 13.8 mph 44% 0 in
18:36 71.8 °F 49.3 °F 29.9 in NNE 8.7 mph 16.1 mph 45% 0 in
18:41 71.6 °F 49.1 °F 29.9 in ESE 8.7 mph 13.8 mph 45% 0 in
18:46 71.4 °F 48.4 °F 29.9 in ESE 8.7 mph 17.3 mph 44% 0 in
18:51 71.6 °F 48.6 °F 29.9 in East 8.7 mph 11.5 mph 44% 0 in
18:56 71.4 °F 48.4 °F 29.9 in East 9.2 mph 13.8 mph 44% 0 in
19:01 71.4 °F 49.6 °F 29.9 in NW 9.2 mph 12.7 mph 46% 0 in
19:06 71.6 °F 50.4 °F 29.9 in NE 7.4 mph 13.8 mph 47% 0 in
19:12 71.2 °F 50 °F 29.9 in East 7.4 mph 10.4 mph 47% 0 in
19:17 71.2 °F 50 °F 29.9 in ENE 8.1 mph 16.1 mph 47% 0 in FEW
19:22 71.1 °F 50.4 °F 29.9 in ENE 8.1 mph 17 mph 48% 0 in FEW
19:27 70.9 °F 50.2 °F 29.9 in NNE 8.5 mph 11.5 mph 48% 0 in FEW
19:32 70.9 °F 50.2 °F 29.9 in NNE 8.5 mph 13.8 mph 48% 0 in
19:37 70.5 °F 50.4 °F 29.9 in NE 7.6 mph 8.5 mph 49% 0 in
19:42 70.5 °F 51.1 °F 29.9 in NE 7.6 mph 11.5 mph 50% 0 in
19:47 70.5 °F 51.1 °F 29.9 in ESE 7.4 mph 10.4 mph 50% 0 in
19:52 70.7 °F 50 °F 29.9 in ENE 7.4 mph 12.7 mph 48% 0 in
19:57 70.3 °F 50.4 °F 29.9 in East 6.2 mph 13.8 mph 49% 0 in
20:02 70 °F 49.8 °F 29.9 in ENE 6.2 mph 10 mph 49% 0 in
20:07 70 °F 49.8 °F 29.9 in ESE 7.6 mph 11.5 mph 49% 0 in
20:08 70 °F 50.5 °F 29.9 in East 7.6 mph 11.5 mph 50% 0 in
20:13 69.8 °F 50.4 °F 29.9 in ENE 7.6 mph 9.2 mph 50% 0 in
20:18 69.6 °F 50.2 °F 29.9 in ENE 5.9 mph 9.7 mph 50% 0 in FEW
20:23 69.4 °F 50 °F 29.9 in NE 5.9 mph 8.1 mph 50% 0 in FEW
20:24 69.4 °F 50.5 °F 29.9 in NE 5.9 mph 10.4 mph 51% 0 in FEW
20:29 69.4 °F 50.5 °F 29.9 in ENE 5.9 mph 10.4 mph 51% 0 in FEW
20:34 69.1 °F 50.7 °F 29.9 in NE 5.9 mph 10.4 mph 52% 0 in FEW
20:39 68.7 °F 50.9 °F 29.9 in NE 6.4 mph 12.7 mph 53% 0 in FEW
20:44 68.5 °F 51.3 °F 29.9 in NE 6.4 mph 6.9 mph 54% 0 in FEW
20:49 68.4 °F 51.1 °F 29.9 in NE 6.4 mph 11.5 mph 54% 0 in FEW
20:54 68.2 °F 51.4 °F 29.9 in NNE 6.4 mph 8.1 mph 55% 0 in FEW
20:59 68 °F 51.3 °F 29.9 in NE 6.9 mph 10.4 mph 55% 0 in FEW
21:04 67.8 °F 51.1 °F 29.9 in ENE 6.9 mph 10.4 mph 55% 0 in FEW
21:09 67.6 °F 51.4 °F 29.9 in NE 6.4 mph 6.9 mph 56% 0 in FEW
21:14 67.5 °F 51.3 °F 29.9 in NE 6.4 mph 6.9 mph 56% 0 in FEW
21:19 67.3 °F 51.4 °F 29.9 in NE 5.4 mph 6.9 mph 57% 0 in
21:24 66.9 °F 51.6 °F 29.9 in NE 5.4 mph 10.4 mph 58% 0 in
21:29 66.7 °F 51.4 °F 29.9 in NE 5.9 mph 6.9 mph 58% 0 in
21:34 66.7 °F 52 °F 29.9 in NE 5.9 mph 6.9 mph 59% 0 in
21:39 66.7 °F 52 °F 29.9 in NE 5.2 mph 5.8 mph 59% 0 in
21:44 66.6 °F 51.8 °F 29.9 in NE 5.2 mph 5.8 mph 59% 0 in CLR
21:49 66.6 °F 51.3 °F 29.9 in NE 3.6 mph 6.9 mph 58% 0 in CLR
21:54 66.4 °F 51.6 °F 29.9 in NE 3.6 mph 5.2 mph 59% 0 in CLR
21:59 66.2 °F 51.4 °F 29.9 in NE 4.3 mph 5.8 mph 59% 0 in CLR
22:04 66 °F 51.6 °F 29.9 in NE 4.3 mph 6.4 mph 60% 0 in CLR
22:09 65.8 °F 51.6 °F 29.9 in East 4.3 mph 4.6 mph 60% 0 in CLR
22:14 65.7 °F 51.8 °F 29.9 in ESE 4.3 mph 4.3 mph 61% 0 in CLR
22:19 65.7 °F 51.8 °F 30 in ENE 2.9 mph 3.5 mph 61% 0 in CLR
22:24 65.7 °F 51.8 °F 30 in ENE 2.9 mph 2.9 mph 61% 0 in CLR
22:29 65.5 °F 51.6 °F 30 in ENE 1.8 mph 3.5 mph 61% 0 in CLR
22:34 65.5 °F 52.2 °F 30 in ENE 1.8 mph 4.6 mph 62% 0 in CLR
22:39 65.3 °F 52 °F 30 in NE 1.8 mph 4.6 mph 62% 0 in CLR
22:44 65.1 °F 51.8 °F 30 in NNE 1.8 mph 4.6 mph 62% 0 in CLR
22:49 64.9 °F 52 °F 30 in ENE 2.9 mph 5.8 mph 63% 0 in CLR
22:54 64.8 °F 52 °F 30 in NE 2.9 mph 5.8 mph 63% 0 in CLR
22:59 64.6 °F 52.2 °F 30 in ENE 3.6 mph 8.1 mph 64% 0 in CLR
23:04 64.4 °F 52 °F 30 in NE 3.6 mph 3.6 mph 64% 0 in CLR
23:09 64.2 °F 52.2 °F 30 in NE 3.1 mph 4.3 mph 65% 0 in CLR
23:14 64.2 °F 51.8 °F 30 in ENE 3.1 mph 4.6 mph 64% 0 in CLR
23:19 64.2 °F 51.8 °F 30 in NE 2.4 mph 3.5 mph 64% 0 in CLR
23:24 64.2 °F 51.8 °F 30 in NE 2.4 mph 4.6 mph 64% 0 in CLR
23:29 64.2 °F 51.8 °F 30 in NE 2.4 mph 3.5 mph 64% 0 in CLR
23:34 64 °F 51.6 °F 30 in ENE 2.4 mph 3.5 mph 64% 0 in CLR
23:39 64 °F 52 °F 30 in ENE 1.8 mph 2.3 mph 65% 0 in CLR
23:44 63.9 °F 52 °F 30 in ENE 1.8 mph 2.3 mph 65% 0 in CLR
23:49 63.7 °F 51.6 °F 30 in NE 1.4 mph 4.6 mph 65% 0 in CLR
23:54 63.3 °F 51.8 °F 30 in NE 1.4 mph 4.6 mph 66% 0 in CLR
23:59 63.1 °F 52 °F 30 in NE 2 mph 4.6 mph 67% 0 in CLR
Murcia-Puente Tocinos, España
Compliments of Weather Underground - 2.5 mb

La estación de MeteoMurcia.com, publica sus datos en los siguientes proyectos:

Meteoclimatic www.awekas.at

W3Counter
Web Analytics